www.pogodaiklimat.ru

Погода и климат >> Архив погоды >> Украина >> Житомир


ПОГОДА в Житомире

АРХИВ ПОГОДЫ в Житомире

Время (UTC), дата Ветер
(напр.,м/с)
 
Видим.   Явления Облачность Т
(С)
Тd
(С)
f
(%)
Тe
(С)
Тes
(С)
Комфортность P
(гПа)
Po
(гПа)
Тmin
(С)
Tmax
(С)
R
(мм)
R24
(мм)
S
(см)
15 17.11 Ю 2 10 км 10/10 600 м
[Sc]
+3.8 -0.2 75 +1 +1 по сезону 1023.0 995.8
18 17.11 ЮЗ 2 10 км 10/10 360 м
[St]
+3.3 +0.7 83 0 0 по сезону 1022.7 995.5 +4.6
21 17.11 штиль 0 10 км 10/10 500 м
[Sc]
+3.3 +0.7 83 +2 +2 по сезону 1022.4 995.2
00 18.11 ЮЗ 1 10 км 10/10 360 м
[St]
+3.2 +0.3 81 +2 +2 по сезону 1021.6 994.4
03 18.11 штиль 0 4000 м слабый дождь 10/8 210 м
[Frnb As op]
+2.9 +1.6 91 +2 +2 по сезону 1020.7 993.5
06 18.11 штиль 0 4000 м слабый дождь 10/8 180 м
[Frnb As op]
+2.8 +2.0 94 +2 +2 тепло 1020.0 992.8 +2.4 0.7
09 18.11 штиль 0 1000 м слабый дождь 10/8 240 м
[Frnb As op]
+3.4 +2.7 95 +2 +2 по сезону 1019.4 992.3
12 18.11 штиль 0 4000 м слабый дождь 10/8 300 м
[Frnb As op]
+4.2 +3.2 93 +3 +3 по сезону 1017.3 990.3
15 18.11 Ю 1 4000 м слабый дождь 10/8 210 м
[Frnb As op]
+4.1 +3.4 95 +3 +3 по сезону 1015.7 988.8
18 18.11 Ю 1 2000 м слабый ливневой дождь 10/10 180 м
[Cb cap]
+3.9 +3.4 97 +2 +2 по сезону 1014.2 987.3 +4.2 4
21 18.11 З 1 4000 м слабый дождь {ливн. осадки} 10/9 180 м
[Frnb As op]
+3.6 +2.9 95 +2 +2 по сезону 1012.9 986.0
00 19.11 З 1 4000 м дымка {ливн. осадки, дождь} 10/10 240 м
[St]
+2.8 +2.0 94 +1 +1 по сезону 1011.3 984.4
03 19.11 З 1 4000 м дымка 10/10 240 м
[St]
+2.7 +1.7 93 +1 +1 по сезону 1010.1 983.2
06 19.11 З 1 4000 м дымка 10/10 210 м
[St]
+2.0 +1.2 94 0 0 по сезону 1010.1 983.1 +2.0 2
09 19.11 З 2 4000 м дымка 10/10 240 м
[St]
+2.6 +1.8 94 -1 -1 по сезону 1010.0 983.1
12 19.11 З 2 10 км {дождь} 9/0
[Ac trans Cc]
+4.0 +1.7 85 +1 +2 по сезону 1009.3 982.5
15 19.11 З 1 10 км 9/0
[Ac trans]
+3.6 +1.0 83 +2 +2 по сезону 1009.6 982.8
18 19.11 З 1 10 км ясно +1.4 -1.1 83 -0 -0 по сезону 1010.8 983.7 +4.8 0.0
21 19.11 СЗ 1 10 км ясно -0.2 -2.3 86 -2 -2 по сезону 1011.6 984.3
00 20.11 С 1 4000 м дымка ясно -1.0 -1.9 94 -3 -3 по сезону 1011.3 984.0
03 20.11 штиль 0 4000 м дымка ясно -1.6 -2.4 94 -3 -3 по сезону 1011.0 983.6
06 20.11 штиль 0 4000 м дымка 9/9 840 м
[Sc]
-2.1 -3.0 94 -3 -3 по сезону 1010.9 983.5 -2.2
09 20.11 штиль 0 10 км 3/0
[Ci fib]
+3.5 -1.4 70 +3 +5 тепло 1010.9 984.0
12 20.11 З 1 10 км 4/3 600 м
[Cb calv Ci fib]
+4.8 -0.8 67 +4 +5 тепло 1009.7 983.0
15 20.11 штиль 0 10 км 8/4 600 м
[Cb calv Ac trans]
+3.6 -1.3 70 +3 +3 тепло 1010.0 983.2
18 20.11 З 1 10 км 9/3 600 м
[Sc Ac trans]
+2.0 -1.0 80 0 0 по сезону 1010.0 983.0 +5.5
21 20.11 З 2 10 км в посл. час ливневой дождь 10/10 600 м
[Cb cap]
+2.4 -1.2 77 -1 -1 по сезону 1010.0 983.0
00 21.11 СЗ 2 10 км {ливн. осадки} 9/8 570 м
[Sc Ac trans]
+1.6 -0.9 83 -2 -2 по сезону 1010.5 983.5
03 21.11 СЗ 2 10 км 10/10 630 м
[Sc]
+1.2 -1.6 82 -2 -2 по сезону 1010.8 983.7
06 21.11 штиль 0 10 км 1/1 600 м
[Sc]
-0.9 -2.1 92 -2 -2 по сезону 1011.9 984.6 -0.9 0.0
09 21.11 СЗ 2 10 км 8/4 600 м
[Cb cap Ac trans Ci sp]
+1.5 -1.9 78 -2 -1 по сезону 1012.4 985.3
12 21.11 СЗ 2 10 км 10/10 1000 м
[Cb cap]
+2.2 -4.8 60 -1 -1 по сезону 1012.0 985.0
15 21.11 СЗ 1 10 км 10/8 900 м
[Cb cap Ac und]
+1.3 -3.5 70 -0 -0 по сезону 1013.3 986.1
18 21.11 З 1 10 км 10/10 900 м
[Sc]
+1.0 -1.9 81 -1 -1 по сезону 1013.4 986.2 +3.5
21 21.11 З 1 10 км 10/0
[Ac und]
+0.1 -1.9 86 -2 -2 по сезону 1013.9 986.6
00 22.11 З 1 10 км 10/0
[Ac und]
+0.7 -2.5 79 -1 -1 по сезону 1014.1 986.9
03 22.11 СЗ 1 10 км 8/0
[Ac trans]
-0.2 -3.2 80 -2 -2 по сезону 1014.7 987.4
06 22.11 З 1 10 км 10/3 600 м
[Sc Ac und]
-0.5 -3.2 82 -2 -2 по сезону 1015.2 987.8 -0.8
09 22.11 СЗ 1 10 км 9/9 800 м
[Sc]
+0.9 -2.3 79 -1 -1 по сезону 1016.2 988.9
12 22.11 СЗ 1 10 км 8/8 900 м
[Cb cap]
+2.4 -5.0 58 +1 +2 по сезону 1015.9 988.8
15 22.11 штиль 0 10 км 9/0
[Ac trans]
+1.0 -5.0 64 0 0 по сезону 1017.4 990.1
18 22.11 штиль 0 10 км ясно -2.1 -4.4 84 -3 -3 по сезону 1018.9 991.2 +3.2
21 22.11 штиль 0 10 км ясно -3.3 -5.4 85 -4 -4 по сезону 1020.0 992.2
00 23.11 штиль 0 4000 м дымка ясно -5.4 -6.1 95 -6 -6 прохладно 1021.2 993.1
03 23.11 штиль 0 4000 м дымка ясно -5.4 -6.1 95 -6 -6 прохладно 1022.1 994.0
06 23.11 штиль 0 4000 м дымка 4/0
[Ac cast Ci fib]
-6.3 -7.5 91 -7 -7 прохладно 1022.8 994.6 -6.9
09 23.11 ЮЗ 1 10 км 4/0
[Ci fib]
+1.0 -2.6 77 -1 +1 по сезону 1022.9 995.5
12 23.11 Ю 1 10 км 3/0
[Ci fib]
+2.8 -4.8 57 +2 +3 по сезону 1021.9 994.6
15 23.11 штиль 0 10 км 3/0
[Ci fib]
+0.8 -4.1 70 0 0 по сезону 1022.5 995.0
18 23.11 штиль 0 10 км ясно -2.3 -4.5 85 -3 -3 по сезону 1023.1 995.3 +3.4
21 23.11 штиль 0 10 км ясно -1.3 -3.9 82 -2 -2 по сезону 1022.6 994.9
00 24.11 штиль 0 10 км ясно -1.1 -4.3 79 -2 -2 по сезону 1022.1 994.5
03 24.11 Ю 1 10 км ясно -1.7 -4.1 84 -4 -4 по сезону 1022.1 994.4
06 24.11 Ю 1 10 км 4/0
[Ci fib]
-1.3 -4.2 81 -3 -3 по сезону 1022.6 994.9 -3.0
09 24.11 Ю 2 10 км 9/0
[Ac trans]
+0.6 -2.8 78 -3 -2 по сезону 1022.8 995.3
12 24.11 Ю 3 10 км 8/0
[Ac trans Ci fib]
+2.9 -1.6 72 -1 -0 по сезону 1021.9 994.7

 

Местоположение метеостанции Житомир (Житомирская область, Украина): широта 50.23 долгота 28.73 высота над уровнем моря 224 м.

В архиве по умолчанию представлена погода в Житомире за последнюю неделю. Архивные данные за месяц целиком и за предыдущие месяцы, начиная с января 2011 года, Вы можете получить, выбрав интересующий диапазон дат из раскрывающегося списка и нажав кнопку "Ввод!".

Внимание! Время в таблицах - всемирное. Для получения местного времени необходимо прибавить поправку, которая в Житомире равна 2 ч.

Смотрите также архив погоды в соседних городах и на ближайших метеорологических станциях:

Погода в Белополе (Винницкая область, Украина) (46 км)
Погода в Тетереве (Киевская область, Украина) (80 км)
Погода в Коростени (Житомирская область, Украина) (80 км)
Погода в Фастове (Киевская область, Украина) (86 км)
Погода в Новограде-Волынском (Житомирская область, Украина) (88 км)
Погода в Виннице (Винницкая область, Украина) (112 км)
Погода в Белой Церкви (Киевская область, Украина) (113 км)
Погода в Шепетовке (Хмельницкая область, Украина) (121 км)
Погода в Овруче (Житомирская область, Украина) (121 км)
Погода в Хмельнике (Винницкая область, Украина) (130 км)

Пояснения к столбцам:

Ветер - указаны скорость ветра в м/с - средняя за 10 мин, порывы в срок и между сроками (в фигурных скобках) и направление, откуда дует ветер: С - северный, СВ - северо-восточный, В - восточный, ЮВ - юго-восточный, Ю - южный, ЮЗ - юго-западный, З - западный, СЗ - северо-западный.
Видимость - горизонтальная дальность видимости в метрах или километрах. При видимости от 1 до 10 км при отсутствии осадков обычно наблюдается дымка, при ухудшении видимости до 1 км и менее - туман. В сухую погоду видимость может ухудшаться дымом, пылью или мглою.
Явления - указаны атмосферные явления, наблюдавшиеся в срок или в последний час перед сроком; фигурными скобками обозначены явления, наблюдавшиеся между сроками (за 1-3 часа до срока); квадратными скобками обозначены град или гололедные отложения с указанием их диаметра в мм.
Облачность - указаны через наклонную черту общая и нижняя облачность в баллах и высота нижней границы облаков в метрах; квадратными скобками обозначены формы облаков: Ci - перистые, Cs - перисто-слоистые, Cc - перисто-кучевые, Ac - высококучевые, As - высокослоистые, Sc - слоисто-кучевые, Ns - слоисто-дождевые, Cu - кучевые, Cb - кучево-дождевые. Подробнее классификацию облаков см. в Атласе облаков (PDF).
T - Температура воздуха - температура, измеренная на высоте 2 м над землей.
Td - Температура точки росы - температура, при понижении до которой содержащийся в воздухе водяной пар достигнет насыщения.
f - Относительная влажность воздуха - влажноcть воздуха, измеренная на высоте 2 м над землей.
Te - Эффективная температура - температура, которую ощущает одетый по сезону человек в тени. Характеристика душности погоды. При расчете учитывается влияние влажности воздуха и скорости ветра на теплоощущения человека.
Tes - Эффективная температура на солнце - температура, которую ощущает человек, с поправкой на солнечный нагрев. Характеристика знойности погоды. Зависит от высоты солнца над горизонтом, облачности и скорости ветра. Ночью, в пасмурную погоду, а также при ветре 12 м/с и более поправка равна нулю.
P - Атмосферное давление - приведенное к уровню моря атмосферное давление.
Po - Атмосферное давление - измеренное на уровне метеостанции атмосферное давление.
Tmin - Минимальная температура - минимум температуры воздуха на высоте 2 м над землей.
Tmax - Максимальная температура - максимум температуры воздуха на высоте 2 м над землей.
R - Количество осадков - Количество выпавших осадков за период времени, мм. При наведении курсора мыши на число - период времени, за который выпало указанное количество осадков.
R24 - Количество осадков - Количество выпавших осадков за 24 часа, мм.
S - Снежный покров - Высота снежного покрова, см. При наведении курсора мыши на число - состояние снежного покрова и степень покрытия местности в баллах.